EN

Hourly Weather Abbasanta

Today, 15 June, Tuesday

Time Temperature Precipitation Wind Pressure Humidity
00:00 +20°C° 0 mm 1 mps 733 mmHg 69%
01:00 +20°C° 0 mm 1 mps 733 mmHg 69%
02:00 +20°C° 0 mm 1 mps 733 mmHg 68%
03:00 +20°C° 0 mm 1 mps 732 mmHg 66%
04:00 +20°C° 0 mm 1 mps 732 mmHg 65%
05:00 +22°C° 0 mm 1 mps 733 mmHg 59%
06:00 +23°C° 0 mm 1 mps 733 mmHg 53%
07:00 +23°C° 0 mm 0 mps 733 mmHg 46%
08:00 +27°C° 0 mm 1 mps 734 mmHg 41%
09:00 +29°C° 0 mm 1 mps 734 mmHg 36%
10:00 +32°C° 0 mm 2 mps 734 mmHg 31%
11:00 +32°C° 0 mm 2 mps 734 mmHg 31%
12:00 +34°C° 0 mm 3 mps 733 mmHg 30%
13:00 +35°C° 0 mm 4 mps 733 mmHg 30%
14:00 +34°C° 0 mm 4 mps 733 mmHg 31%
15:00 +33°C° 0 mm 4 mps 733 mmHg 33%
16:00 +33°C° 0 mm 4 mps 733 mmHg 35%
17:00 +30°C° 0 mm 3 mps 733 mmHg 39%
18:00 +29°C° 0 mm 2 mps 733 mmHg 43%
19:00 +28°C° 0 mm 1 mps 733 mmHg 46%
20:00 +26°C° 0 mm 1 mps 733 mmHg 52%
21:00 +24°C° 0 mm 1 mps 733 mmHg 58%
22:00 +22°C° 0 mm 1 mps 733 mmHg 64%
23:00 +22°C° 0 mm 1 mps 733 mmHg 65%

Tomorrow, 16 June, Wednesday

Time Temperature Precipitation Wind Pressure Humidity
00:00 +21°C° 0 mm 1 mps 733 mmHg 65%
01:00 +21°C° 0 mm 1 mps 733 mmHg 66%
02:00 +21°C° 0 mm 1 mps 733 mmHg 66%
03:00 +21°C° 0 mm 1 mps 732 mmHg 66%
04:00 +20°C° 0 mm 1 mps 732 mmHg 67%
05:00 +22°C° 0 mm 1 mps 732 mmHg 61%
06:00 +24°C° 0 mm 1 mps 732 mmHg 55%
07:00 +26°C° 0 mm 1 mps 733 mmHg 49%
08:00 +28°C° 0 mm 1 mps 733 mmHg 44%
09:00 +30°C° 0 mm 1 mps 733 mmHg 38%
10:00 +32°C° 0 mm 1 mps 733 mmHg 33%
11:00 +34°C° 0 mm 2 mps 732 mmHg 31%
12:00 +35°C° 0 mm 3 mps 732 mmHg 29%
13:00 +36°C° 0 mm 4 mps 732 mmHg 27%
14:00 +35°C° 0 mm 4 mps 732 mmHg 28%
15:00 +35°C° 0 mm 4 mps 731 mmHg 29%
16:00 +34°C° 0 mm 4 mps 731 mmHg 30%
17:00 +33°C° 0 mm 3 mps 731 mmHg 34%
18:00 +31°C° 0 mm 2 mps 731 mmHg 38%
19:00 +29°C° 0 mm 2 mps 731 mmHg 42%
20:00 +27°C° 0 mm 2 mps 731 mmHg 48%
21:00 +25°C° 0 mm 2 mps 731 mmHg 53%
22:00 +23°C° 0 mm 2 mps 732 mmHg 59%
23:00 +23°C° 0 mm 2 mps 731 mmHg 61%

Day after tomorrow, 17 June, Thursday

Time Temperature Precipitation Wind Pressure Humidity
00:00 +21°C° 0 mm 2 mps 731 mmHg 63%
01:00 +21°C° 0 mm 2 mps 731 mmHg 66%
02:00 +21°C° 0 mm 2 mps 731 mmHg 65%
03:00 +21°C° 0 mm 2 mps 731 mmHg 65%
04:00 +20°C° 0 mm 2 mps 731 mmHg 65%
05:00 +23°C° 0 mm 2 mps 731 mmHg 58%
06:00 +25°C° 0 mm 2 mps 732 mmHg 51%
07:00 +27°C° 0 mm 1 mps 732 mmHg 45%
08:00 +29°C° 0 mm 2 mps 732 mmHg 38%
09:00 +32°C° 0 mm 2 mps 732 mmHg 31%
10:00 +35°C° 0 mm 3 mps 732 mmHg 24%
11:00 +36°C° 0 mm 3 mps 732 mmHg 24%
12:00 +37°C° 0 mm 4 mps 731 mmHg 23%
13:00 +37°C° 0 mm 5 mps 731 mmHg 22%
14:00 +36°C° 0 mm 5 mps 731 mmHg 25%
15:00 +35°C° 0 mm 5 mps 731 mmHg 27%
16:00 +34°C° 0 mm 4 mps 731 mmHg 30%
17:00 +32°C° 0 mm 4 mps 731 mmHg 33%
18:00 +30°C° 0 mm 3 mps 731 mmHg 36%
19:00 +29°C° 0 mm 3 mps 731 mmHg 38%
20:00 +27°C° 0 mm 3 mps 731 mmHg 42%
21:00 +25°C° 0 mm 3 mps 731 mmHg 46%
22:00 +22°C° 0 mm 3 mps 731 mmHg 50%
23:00 +23°C° 0 mm 2 mps 731 mmHg 50%

18 June, Friday

Time Temperature Precipitation Wind Pressure Humidity
00:00 +23°C° 0 mm 2 mps 731 mmHg 50%
01:00 +23°C° 0 mm 2 mps 731 mmHg 50%
02:00 +23°C° 0 mm 2 mps 731 mmHg 49%
03:00 +23°C° 0 mm 2 mps 731 mmHg 48%
04:00 +23°C° 0 mm 1 mps 731 mmHg 48%
05:00 +24°C° 0 mm 1 mps 731 mmHg 45%
06:00 +25°C° 0 mm 1 mps 732 mmHg 43%
07:00 +27°C° 0 mm 1 mps 732 mmHg 40%
08:00 +29°C° 0 mm 1 mps 732 mmHg 37%
09:00 +31°C° 0 mm 2 mps 732 mmHg 33%
10:00 +34°C° 0 mm 2 mps 732 mmHg 30%
11:00 +35°C° 0 mm 3 mps 732 mmHg 30%
12:00 +36°C° 0 mm 4 mps 732 mmHg 30%
13:00 +37°C° 0 mm 4 mps 732 mmHg 30%
14:00 +36°C° 0 mm 4 mps 732 mmHg 32%
15:00 +35°C° 0 mm 4 mps 732 mmHg 34%
16:00 +35°C° 0 mm 3 mps 732 mmHg 36%
17:00 +34°C° 0 mm 3 mps 732 mmHg 39%
18:00 +32°C° 0 mm 2 mps 732 mmHg 41%
19:00 +31°C° 0 mm 1 mps 732 mmHg 43%
20:00 +29°C° 0 mm 1 mps 732 mmHg 48%
21:00 +28°C° 0 mm 1 mps 732 mmHg 53%
22:00 +26°C° 0 mm 1 mps 732 mmHg 58%
23:00 +25°C° 0 mm 1 mps 733 mmHg 62%

19 June, Saturday

Time Temperature Precipitation Wind Pressure Humidity
00:00 +24°C° 0 mm 1 mps 733 mmHg 65%
01:00 +24°C° 0 mm 1 mps 733 mmHg 69%
02:00 +24°C° 0 mm 1 mps 733 mmHg 68%
03:00 +24°C° 0 mm 1 mps 733 mmHg 66%
04:00 +24°C° 0 mm 2 mps 733 mmHg 65%
05:00 +26°C° 0 mm 2 mps 733 mmHg 57%
06:00 +28°C° 0 mm 2 mps 733 mmHg 50%
07:00 +29°C° 0 mm 3 mps 733 mmHg 43%
08:00 +33°C° 0 mm 3 mps 733 mmHg 36%
09:00 +36°C° 0 mm 3 mps 733 mmHg 29%
10:00 +38°C° 0 mm 3 mps 733 mmHg 22%
11:00 +41°C° 0 mm 4 mps 732 mmHg 20%
12:00 +42°C° 0 mm 5 mps 732 mmHg 19%
13:00 +44°C° 0 mm 6 mps 731 mmHg 17%
14:00 +42°C° 0 mm 6 mps 731 mmHg 19%
15:00 +41°C° 0 mm 5 mps 731 mmHg 21%
16:00 +41°C° 0 mm 5 mps 731 mmHg 23%
17:00 +38°C° 0 mm 4 mps 731 mmHg 25%
18:00 +36°C° 0 mm 3 mps 731 mmHg 27%
19:00 +35°C° 0 mm 3 mps 731 mmHg 29%
20:00 +31°C° 0 mm 3 mps 731 mmHg 33%
21:00 +29°C° 0 mm 3 mps 731 mmHg 37%
22:00 +27°C° 0 mm 3 mps 731 mmHg 42%
23:00 +27°C° 0 mm 3 mps 731 mmHg 40%

20 June, Sunday

Time Temperature Precipitation Wind Pressure Humidity
00:00 +26°C° 0 mm 2 mps 731 mmHg 38%
01:00 +26°C° 0 mm 2 mps 731 mmHg 37%
02:00 +26°C° 0 mm 2 mps 731 mmHg 35%
03:00 +27°C° 0 mm 2 mps 730 mmHg 34%
04:00 +27°C° 0 mm 3 mps 730 mmHg 32%
05:00 +28°C° 0 mm 3 mps 730 mmHg 32%
06:00 +29°C° 0 mm 3 mps 730 mmHg 31%
07:00 +30°C° 0 mm 3 mps 730 mmHg 31%
08:00 +35°C° 0 mm 3 mps 730 mmHg 26%
09:00 +38°C° 0 mm 3 mps 730 mmHg 22%
10:00 +42°C° 0 mm 4 mps 730 mmHg 18%
11:00 +42°C° 0 mm 4 mps 730 mmHg 20%
12:00 +41°C° 0 mm 5 mps 730 mmHg 23%
13:00 +41°C° 0 mm 5 mps 730 mmHg 26%
14:00 +40°C° 0 mm 5 mps 730 mmHg 27%
15:00 +40°C° 0 mm 4 mps 729 mmHg 28%
16:00 +38°C° 0 mm 4 mps 729 mmHg 29%
17:00 +35°C° 0 mm 3 mps 729 mmHg 41%
18:00 +31°C° 0 mm 3 mps 730 mmHg 52%
19:00 +28°C° 0 mm 2 mps 730 mmHg 64%
20:00 +27°C° 0 mm 2 mps 730 mmHg 68%
21:00 +26°C° 0 mm 2 mps 730 mmHg 72%
22:00 +25°C° 0 mm 2 mps 730 mmHg 76%
23:00 +25°C° 0 mm 2 mps 730 mmHg 69%
Show more